Time,TemperatureF,DewpointF,PressureIn,WindDirection,WindDirectionDegrees,WindSpeedMPH,WindSpeedGustMPH,Humidity,HourlyPrecipIn,Conditions,Clouds,dailyrainin,SoftwareType,DateUTC
2013-02-08 00:01:00,26.0,15.0,30.44,South,186,0.0,1.0,64,0.00,,,0.00,weatherlink.com 1.10,2013-02-08 05:01:00,
2013-02-08 00:16:00,26.3,15.0,30.42,South,186,0.0,0.0,62,0.00,,,0.00,weatherlink.com 1.10,2013-02-08 05:16:00,
2013-02-08 00:31:00,26.6,15.0,30.41,South,186,0.0,0.0,63,0.00,,,0.00,weatherlink.com 1.10,2013-02-08 05:31:00,
2013-02-08 00:46:00,26.5,15.0,30.41,South,186,0.0,0.0,62,0.00,,,0.00,weatherlink.com 1.10,2013-02-08 05:46:00,
2013-02-08 01:02:00,26.7,15.0,30.40,South,184,0.0,1.0,62,0.00,,,0.00,weatherlink.com 1.10,2013-02-08 06:02:00,
2013-02-08 01:16:00,26.8,15.0,30.39,South,186,0.0,1.0,62,0.00,,,0.00,weatherlink.com 1.10,2013-02-08 06:16:00,
2013-02-08 01:31:00,26.7,15.0,30.39,South,186,0.0,0.0,62,0.00,,,0.00,weatherlink.com 1.10,2013-02-08 06:31:00,
2013-02-08 01:46:00,26.9,15.0,30.39,South,186,0.0,0.0,62,0.00,,,0.00,weatherlink.com 1.10,2013-02-08 06:46:00,
2013-02-08 02:01:00,27.1,16.0,30.38,South,186,0.0,0.0,63,0.00,,,0.00,weatherlink.com 1.10,2013-02-08 07:01:00,
2013-02-08 02:17:00,27.1,16.0,30.37,South,186,0.0,0.0,63,0.00,,,0.00,weatherlink.com 1.10,2013-02-08 07:17:00,
2013-02-08 02:32:00,27.3,16.0,30.36,South,186,0.0,0.0,62,0.00,,,0.00,weatherlink.com 1.10,2013-02-08 07:32:00,
2013-02-08 02:47:00,27.5,16.0,30.35,West,281,0.0,1.0,62,0.00,,,0.00,weatherlink.com 1.10,2013-02-08 07:47:00,
2013-02-08 03:02:00,27.6,16.0,30.34,West,281,0.0,0.0,61,0.00,,,0.00,weatherlink.com 1.10,2013-02-08 08:02:00,
2013-02-08 03:17:00,27.7,16.0,30.34,West,280,0.0,0.0,62,0.00,,,0.00,weatherlink.com 1.10,2013-02-08 08:17:00,
2013-02-08 03:32:00,27.7,16.0,30.34,SSW,203,0.0,0.0,63,0.00,,,0.00,weatherlink.com 1.10,2013-02-08 08:32:00,
2013-02-08 03:47:00,27.6,17.0,30.33,SSW,203,0.0,1.0,65,0.00,,,0.00,weatherlink.com 1.10,2013-02-08 08:47:00,
2013-02-08 04:02:00,27.6,17.0,30.33,SSW,203,0.0,0.0,64,0.00,,,0.00,weatherlink.com 1.10,2013-02-08 09:02:00,
2013-02-08 04:17:00,27.5,17.0,30.33,SSW,203,0.0,0.0,66,0.00,,,0.00,weatherlink.com 1.10,2013-02-08 09:17:00,
2013-02-08 04:32:00,27.6,18.0,30.32,SSW,203,0.0,0.0,66,0.00,,,0.00,weatherlink.com 1.10,2013-02-08 09:32:00,
2013-02-08 04:47:00,27.7,18.0,30.31,SSW,203,0.0,0.0,67,0.00,,,0.00,weatherlink.com 1.10,2013-02-08 09:47:00,
2013-02-08 05:02:00,27.7,18.0,30.31,SSW,203,0.0,0.0,67,0.00,,,0.00,weatherlink.com 1.10,2013-02-08 10:02:00,
2013-02-08 05:17:00,27.5,18.0,30.31,SSW,203,0.0,0.0,68,0.00,,,0.00,weatherlink.com 1.10,2013-02-08 10:17:00,
2013-02-08 05:32:00,27.6,19.0,30.30,SSW,203,0.0,0.0,69,0.00,,,0.00,weatherlink.com 1.10,2013-02-08 10:32:00,
2013-02-08 05:47:00,27.7,19.0,30.29,SSW,203,0.0,0.0,69,0.00,,,0.00,weatherlink.com 1.10,2013-02-08 10:47:00,
2013-02-08 06:02:00,27.6,19.0,30.29,SSW,203,0.0,1.0,70,0.00,,,0.00,weatherlink.com 1.10,2013-02-08 11:02:00,
2013-02-08 06:17:00,27.5,19.0,30.29,SSW,202,0.0,1.0,69,0.00,,,0.00,weatherlink.com 1.10,2013-02-08 11:17:00,
2013-02-08 06:32:00,27.9,19.0,30.28,NE,41,0.0,1.0,68,0.00,,,0.00,weatherlink.com 1.10,2013-02-08 11:32:00,
2013-02-08 06:47:00,28.0,19.0,30.27,ENE,68,0.0,2.0,68,0.00,,,0.00,weatherlink.com 1.10,2013-02-08 11:47:00,
2013-02-08 07:02:00,28.1,19.0,30.27,ENE,62,0.0,2.0,70,0.00,,,0.00,weatherlink.com 1.10,2013-02-08 12:02:00,
2013-02-08 07:17:00,28.1,20.0,30.26,ENE,71,0.0,1.0,72,0.00,,,0.00,weatherlink.com 1.10,2013-02-08 12:17:00,
2013-02-08 07:32:00,28.0,21.0,30.26,NNE,29,0.0,2.0,74,0.00,,,0.00,weatherlink.com 1.10,2013-02-08 12:32:00,
2013-02-08 07:47:00,27.8,21.0,30.25,North,358,0.0,2.0,77,0.00,,,0.00,weatherlink.com 1.10,2013-02-08 12:47:00,
2013-02-08 08:02:00,27.6,22.0,30.24,NW,313,1.0,4.0,79,0.00,,,0.00,weatherlink.com 1.10,2013-02-08 13:02:00,
2013-02-08 08:17:00,27.3,23.0,30.24,North,8,0.0,3.0,84,0.00,,,0.00,weatherlink.com 1.10,2013-02-08 13:17:00,
2013-02-08 08:32:00,26.9,23.0,30.23,WNW,302,1.0,3.0,86,0.00,,,0.00,weatherlink.com 1.10,2013-02-08 13:32:00,
2013-02-08 08:48:00,26.9,24.0,30.23,North,5,1.0,4.0,87,0.00,,,0.00,weatherlink.com 1.10,2013-02-08 13:48:00,
2013-02-08 09:02:00,27.0,24.0,30.22,NNW,345,1.0,4.0,89,0.00,,,0.00,weatherlink.com 1.10,2013-02-08 14:02:00,
2013-02-08 09:17:00,27.2,25.0,30.21,North,8,1.0,2.0,91,0.00,,,0.00,weatherlink.com 1.10,2013-02-08 14:17:00,
2013-02-08 09:32:00,27.5,25.0,30.21,North,357,0.0,2.0,91,0.00,,,0.00,weatherlink.com 1.10,2013-02-08 14:32:00,
2013-02-08 09:47:00,27.9,26.0,30.20,North,357,0.0,1.0,92,0.00,,,0.00,weatherlink.com 1.10,2013-02-08 14:47:00,
2013-02-08 10:03:00,28.3,27.0,30.20,ESE,118,0.0,1.0,93,0.00,,,0.00,weatherlink.com 1.10,2013-02-08 15:03:00,
2013-02-08 10:18:00,28.6,27.0,30.18,ESE,102,0.0,3.0,92,0.00,,,0.00,weatherlink.com 1.10,2013-02-08 15:18:00,
2013-02-08 10:33:00,28.9,27.0,30.18,East,96,1.0,4.0,91,0.00,,,0.00,weatherlink.com 1.10,2013-02-08 15:33:00,
2013-02-08 10:49:00,29.2,27.0,30.17,ENE,63,1.0,4.0,91,0.00,,,0.00,weatherlink.com 1.10,2013-02-08 15:49:00,
2013-02-08 11:04:00,29.5,27.0,30.16,SE,129,1.0,4.0,91,0.00,,,0.00,weatherlink.com 1.10,2013-02-08 16:04:00,
2013-02-08 11:19:00,29.8,27.0,30.14,SSE,166,0.0,4.0,90,0.00,,,0.00,weatherlink.com 1.10,2013-02-08 16:19:00,
2013-02-08 11:34:00,30.5,28.0,30.12,East,100,0.0,2.0,90,0.00,,,0.00,weatherlink.com 1.10,2013-02-08 16:34:00,
2013-02-08 11:49:00,30.9,28.0,30.11,SSW,207,1.0,3.0,88,0.00,,,0.00,weatherlink.com 1.10,2013-02-08 16:49:00,
2013-02-08 12:04:00,31.1,28.0,30.09,SSE,157,1.0,6.0,88,0.00,,,0.00,weatherlink.com 1.10,2013-02-08 17:04:00,
2013-02-08 12:19:00,31.2,28.0,30.08,ENE,60,4.0,5.0,88,0.00,,,0.00,weatherlink.com 1.10,2013-02-08 17:19:00,
2013-02-08 12:34:00,31.0,28.0,30.07,NNW,334,2.0,6.0,88,0.00,,,0.00,weatherlink.com 1.10,2013-02-08 17:34:00,
2013-02-08 12:49:00,30.8,28.0,30.06,SW,235,1.0,5.0,90,0.00,,,0.00,weatherlink.com 1.10,2013-02-08 17:49:00,
2013-02-08 13:04:00,30.8,28.0,30.05,SSE,148,0.0,5.0,90,0.00,,,0.00,weatherlink.com 1.10,2013-02-08 18:04:00,
2013-02-08 13:34:00,30.9,28.0,30.02,SE,129,0.0,5.0,90,0.00,,,0.00,weatherlink.com 1.10,2013-02-08 18:34:00,
2013-02-08 13:49:00,31.1,29.0,30.00,NE,49,1.0,4.0,91,0.00,,,0.00,weatherlink.com 1.10,2013-02-08 18:49:00,
2013-02-08 14:04:00,31.0,29.0,29.99,SSE,151,2.0,8.0,91,0.00,,,0.00,weatherlink.com 1.10,2013-02-08 19:04:00,
2013-02-08 14:19:00,31.0,29.0,29.98,East,96,4.0,5.0,91,0.00,,,0.00,weatherlink.com 1.10,2013-02-08 19:19:00,
2013-02-08 14:36:00,30.8,29.0,29.97,West,273,1.0,7.0,91,0.00,,,0.00,weatherlink.com 1.10,2013-02-08 19:36:00,
2013-02-08 14:49:00,30.9,29.0,29.96,South,172,0.0,6.0,91,0.00,,,0.00,weatherlink.com 1.10,2013-02-08 19:49:00,
2013-02-08 15:04:00,30.8,29.0,29.94,NNE,23,6.0,6.0,92,0.00,,,0.00,weatherlink.com 1.10,2013-02-08 20:04:00,
2013-02-08 15:19:00,30.9,29.0,29.94,NE,49,1.0,2.0,92,0.00,,,0.00,weatherlink.com 1.10,2013-02-08 20:19:00,
2013-02-08 15:34:00,30.9,29.0,29.92,NNW,345,3.0,6.0,92,0.00,,,0.00,weatherlink.com 1.10,2013-02-08 20:34:00,
2013-02-08 15:50:00,31.0,29.0,29.92,North,349,1.0,3.0,92,0.00,,,0.00,weatherlink.com 1.10,2013-02-08 20:50:00,
2013-02-08 16:04:00,30.8,29.0,29.91,ESE,120,1.0,7.0,92,0.00,,,0.00,weatherlink.com 1.10,2013-02-08 21:04:00,
2013-02-08 16:19:00,30.8,29.0,29.90,NNE,25,2.0,5.0,92,0.00,,,0.00,weatherlink.com 1.10,2013-02-08 21:19:00,
2013-02-08 16:34:00,30.6,29.0,29.90,SSE,163,0.0,4.0,93,0.00,,,0.00,weatherlink.com 1.10,2013-02-08 21:34:00,
2013-02-08 16:49:00,30.4,29.0,29.89,SSE,158,1.0,5.0,93,0.00,,,0.00,weatherlink.com 1.10,2013-02-08 21:49:00,
2013-02-08 17:04:00,30.2,29.0,29.89,SSE,157,0.0,10.0,94,0.00,,,0.00,weatherlink.com 1.10,2013-02-08 22:04:00,
2013-02-08 17:19:00,30.0,29.0,29.89,SSE,163,4.0,9.0,94,0.00,,,0.00,weatherlink.com 1.10,2013-02-08 22:19:00,
2013-02-08 17:34:00,29.6,28.0,29.88,North,349,2.0,6.0,94,0.00,,,0.00,weatherlink.com 1.10,2013-02-08 22:34:00,
2013-02-08 17:49:00,29.3,28.0,29.88,NNE,33,4.0,4.0,94,0.00,,,0.00,weatherlink.com 1.10,2013-02-08 22:49:00,
2013-02-08 18:04:00,29.0,28.0,29.88,SW,233,2.0,10.0,94,0.00,,,0.00,weatherlink.com 1.10,2013-02-08 23:04:00,
2013-02-08 18:19:00,28.7,27.0,29.88,SE,142,2.0,7.0,94,0.00,,,0.00,weatherlink.com 1.10,2013-02-08 23:19:00,
2013-02-08 18:34:00,28.3,27.0,29.88,SW,232,1.0,6.0,94,0.00,,,0.00,weatherlink.com 1.10,2013-02-08 23:34:00,
2013-02-08 18:49:00,28.0,26.0,29.87,WNW,297,1.0,9.0,93,0.00,,,0.00,weatherlink.com 1.10,2013-02-08 23:49:00,
2013-02-08 19:04:00,27.7,26.0,29.86,ESE,122,2.0,8.0,94,0.00,,,0.00,weatherlink.com 1.10,2013-02-09 00:04:00,
2013-02-08 19:19:00,27.5,26.0,29.84,SSW,203,0.0,7.0,94,0.00,,,0.00,weatherlink.com 1.10,2013-02-09 00:19:00,
2013-02-08 19:34:00,27.3,26.0,29.84,SE,130,4.0,8.0,94,0.00,,,0.00,weatherlink.com 1.10,2013-02-09 00:34:00,
2013-02-08 19:49:00,27.1,26.0,29.84,NW,309,1.0,6.0,94,0.00,,,0.00,weatherlink.com 1.10,2013-02-09 00:49:00,
2013-02-08 20:05:00,26.9,25.0,29.84,SE,143,1.0,8.0,93,0.00,,,0.00,weatherlink.com 1.10,2013-02-09 01:05:00,
2013-02-08 20:20:00,26.5,25.0,29.83,SE,142,2.0,7.0,94,0.00,,,0.00,weatherlink.com 1.10,2013-02-09 01:20:00,
2013-02-08 20:35:00,26.4,25.0,29.83,NW,315,0.0,7.0,94,0.00,,,0.00,weatherlink.com 1.10,2013-02-09 01:35:00,
2013-02-08 20:50:00,26.3,25.0,29.82,WSW,242,1.0,12.0,94,0.00,,,0.00,weatherlink.com 1.10,2013-02-09 01:50:00,
2013-02-08 21:05:00,26.2,25.0,29.81,West,276,0.0,7.0,94,0.00,,,0.00,weatherlink.com 1.10,2013-02-09 02:05:00,
2013-02-08 21:20:00,26.2,25.0,29.82,SW,225,1.0,4.0,95,0.00,,,0.00,weatherlink.com 1.10,2013-02-09 02:20:00,
2013-02-08 21:36:00,26.4,25.0,29.82,NNE,13,0.0,6.0,95,0.00,,,0.00,weatherlink.com 1.10,2013-02-09 02:36:00,
2013-02-08 21:50:00,26.5,25.0,29.82,WNW,298,0.0,8.0,95,0.00,,,0.00,weatherlink.com 1.10,2013-02-09 02:50:00,
2013-02-08 22:04:00,26.5,25.0,29.82,NNE,32,0.0,5.0,95,0.00,,,0.00,weatherlink.com 1.10,2013-02-09 03:04:00,
2013-02-08 22:19:00,26.6,25.0,29.82,North,356,5.0,5.0,95,0.00,,,0.00,weatherlink.com 1.10,2013-02-09 03:19:00,
2013-02-08 22:34:00,26.6,25.0,29.82,NW,323,0.0,5.0,95,0.00,,,0.00,weatherlink.com 1.10,2013-02-09 03:34:00,
2013-02-08 22:49:00,26.7,26.0,29.83,ENE,65,0.0,2.0,95,0.00,,,0.00,weatherlink.com 1.10,2013-02-09 03:49:00,
2013-02-08 23:04:00,26.8,26.0,29.83,SSW,193,0.0,1.0,95,0.00,,,0.00,weatherlink.com 1.10,2013-02-09 04:04:00,
2013-02-08 23:19:00,26.8,26.0,29.84,South,173,0.0,1.0,95,0.00,,,0.00,weatherlink.com 1.10,2013-02-09 04:19:00,
2013-02-08 23:34:00,26.8,26.0,29.85,South,174,0.0,0.0,95,0.00,,,0.00,weatherlink.com 1.10,2013-02-09 04:34:00,
2013-02-08 23:50:00,26.6,25.0,29.85,SSW,208,0.0,1.0,95,0.00,,,0.00,weatherlink.com 1.10,2013-02-09 04:50:00,